| time (UTC) | temp F | wind direction | speed MPH | gust MPH | rain 1hr in | rain 24hr in | rain mn in | humidity % | barometer mb |
| 20260507151539 | 78 | 146 | 1.0 | 4.0 | 0.00 | 0.00 | 0.00 | 26 | 1013.4 |
| 20260507151020 | 78 | 0 | 0.0 | 4.0 | 0.00 | 0.00 | 0.00 | 27 | 1013.4 |
| 20260507150520 | 78 | 165 | 0.0 | 4.0 | 0.00 | 0.00 | 0.00 | 27 | 1013.3 |
| 20260507150039 | 78 | 182 | 0.0 | 1.0 | 0.00 | 0.00 | 0.00 | 28 | 1013.3 |
| 20260507145520 | 78 | 0 | 0.0 | 0.0 | 0.00 | 0.00 | 0.00 | 29 | 1013.2 |
| 20260507145025 | 76 | 0 | 0.0 | 0.0 | 0.00 | 0.00 | 0.00 | 29 | 1013.2 |
| 20260507144538 | 75 | 0 | 0.0 | 0.0 | 0.00 | 0.00 | 0.00 | 30 | 1013.3 |
| 20260507144020 | 74 | 0 | 0.0 | 0.0 | 0.00 | 0.00 | 0.00 | 30 | 1013.3 |
| 20260507143519 | 73 | 0 | 0.0 | 0.0 | 0.00 | 0.00 | 0.00 | 31 | 1013.3 |
| 20260507143038 | 74 | 0 | 0.0 | 0.0 | 0.00 | 0.00 | 0.00 | 32 | 1013.3 |
| 20260507142519 | 72 | 0 | 0.0 | 0.0 | 0.00 | 0.00 | 0.00 | 33 | 1013.3 |
| 20260507142021 | 72 | 0 | 0.0 | 1.0 | 0.00 | 0.00 | 0.00 | 33 | 1013.3 |
| 20260507141537 | 71 | 0 | 0.0 | 1.0 | 0.00 | 0.00 | 0.00 | 33 | 1013.3 |
| 20260507141019 | 71 | 0 | 0.0 | 0.0 | 0.00 | 0.00 | 0.00 | 34 | 1013.2 |
| 20260507140519 | 72 | 0 | 0.0 | 0.0 | 0.00 | 0.00 | 0.00 | 34 | 1013.2 |
| 20260507140045 | 71 | 0 | 0.0 | 0.0 | 0.00 | 0.00 | 0.00 | 35 | 1013.2 |
| 20260507135520 | 70 | 0 | 0.0 | 0.0 | 0.00 | 0.00 | 0.00 | 35 | 1013.2 |
| 20260507135023 | 69 | 0 | 0.0 | 0.0 | 0.00 | 0.00 | 0.00 | 35 | 1013.1 |
| 20260507134540 | 67 | 0 | 0.0 | 0.0 | 0.00 | 0.00 | 0.00 | 35 | 1013.0 |
| 20260507134021 | 66 | 0 | 0.0 | 0.0 | 0.00 | 0.00 | 0.00 | 35 | 1012.9 |
| 20260507133520 | 66 | 0 | 0.0 | 0.0 | 0.00 | 0.00 | 0.00 | 35 | 1012.9 |
| 20260507133039 | 65 | 0 | 0.0 | 0.0 | 0.00 | 0.00 | 0.00 | 35 | 1013.0 |
| 20260507132523 | 65 | 0 | 0.0 | 1.0 | 0.00 | 0.00 | 0.00 | 35 | 1012.8 |
| 20260507132019 | 64 | 0 | 0.0 | 1.0 | 0.00 | 0.00 | 0.00 | 35 | 1012.8 |
| 20260507131606 | 64 | 0 | 0.0 | 1.0 | 0.00 | 0.00 | 0.00 | 35 | 1012.8 |
| 20260507131020 | 64 | 0 | 0.0 | 0.0 | 0.00 | 0.00 | 0.00 | 35 | 1012.8 |
| 20260507130520 | 63 | 0 | 0.0 | 0.0 | 0.00 | 0.00 | 0.00 | 34 | 1012.8 |
| 20260507130037 | 63 | 0 | 0.0 | 0.0 | 0.00 | 0.00 | 0.00 | 34 | 1012.8 |
| 20260507125519 | 62 | 0 | 0.0 | 0.0 | 0.00 | 0.00 | 0.00 | 34 | 1012.8 |
| 20260507125019 | 62 | 0 | 0.0 | 0.0 | 0.00 | 0.00 | 0.00 | 34 | 1012.8 |
| 20260507124546 | 62 | 0 | 0.0 | 0.0 | 0.00 | 0.00 | 0.00 | 34 | 1012.8 |
| 20260507124019 | 61 | 0 | 0.0 | 0.0 | 0.00 | 0.00 | 0.00 | 34 | 1012.8 |
| 20260507123519 | 61 | 0 | 0.0 | 0.0 | 0.00 | 0.00 | 0.00 | 34 | 1012.8 |
| 20260507123042 | 62 | 0 | 0.0 | 0.0 | 0.00 | 0.00 | 0.00 | 34 | 1012.8 |
| 20260507122520 | 61 | 0 | 0.0 | 0.0 | 0.00 | 0.00 | 0.00 | 33 | 1012.8 |
| 20260507122020 | 61 | 0 | 0.0 | 0.0 | 0.00 | 0.00 | 0.00 | 33 | 1012.8 |
| 20260507121541 | 61 | 0 | 0.0 | 0.0 | 0.00 | 0.00 | 0.00 | 33 | 1012.8 |
| 20260507121020 | 61 | 0 | 0.0 | 0.0 | 0.00 | 0.00 | 0.00 | 33 | 1012.8 |
| 20260507120521 | 62 | 0 | 0.0 | 2.0 | 0.00 | 0.00 | 0.00 | 32 | 1012.7 |
| 20260507120041 | 62 | 0 | 0.0 | 3.0 | 0.00 | 0.00 | 0.00 | 32 | 1012.8 |
| 20260507115520 | 63 | 196 | 1.0 | 4.0 | 0.00 | 0.00 | 0.00 | 32 | 1012.7 |
| 20260507115020 | 63 | 207 | 2.0 | 5.0 | 0.00 | 0.00 | 0.00 | 32 | 1012.7 |
| 20260507114537 | 63 | 146 | 2.0 | 5.0 | 0.00 | 0.00 | 0.00 | 32 | 1012.7 |
| 20260507114020 | 64 | 214 | 3.0 | 5.0 | 0.00 | 0.00 | 0.00 | 33 | 1012.6 |
| 20260507113519 | 65 | 217 | 2.0 | 4.0 | 0.00 | 0.00 | 0.00 | 32 | 1012.6 |
| 20260507113101 | 67 | 0 | 0.0 | 0.0 | 0.00 | 0.00 | 0.00 | 32 | 1012.5 |
| 20260507112523 | 66 | 0 | 0.0 | 0.0 | 0.00 | 0.00 | 0.00 | 32 | 1012.5 |
| 20260507112021 | 65 | 0 | 0.0 | 0.0 | 0.00 | 0.00 | 0.00 | 32 | 1012.5 |
| 20260507111537 | 66 | 0 | 0.0 | 0.0 | 0.00 | 0.00 | 0.00 | 32 | 1012.5 |
| 20260507111019 | 66 | 0 | 0.0 | 0.0 | 0.00 | 0.00 | 0.00 | 31 | 1012.5 |
| 20260507110519 | 66 | 0 | 0.0 | 0.0 | 0.00 | 0.00 | 0.00 | 31 | 1012.5 |
| 20260507110039 | 67 | 0 | 0.0 | 1.0 | 0.00 | 0.00 | 0.00 | 31 | 1012.5 |
| 20260507105520 | 67 | 0 | 0.0 | 1.0 | 0.00 | 0.00 | 0.00 | 30 | 1012.6 |
| 20260507105020 | 68 | 0 | 0.0 | 3.0 | 0.00 | 0.00 | 0.00 | 31 | 1012.5 |
| 20260507104542 | 68 | 0 | 0.0 | 3.0 | 0.00 | 0.00 | 0.00 | 31 | 1012.5 |
| 20260507104019 | 67 | 340 | 1.0 | 3.0 | 0.00 | 0.00 | 0.00 | 30 | 1012.7 |
| 20260507103522 | 67 | 0 | 0.0 | 2.0 | 0.00 | 0.00 | 0.00 | 30 | 1012.6 |
| 20260507103038 | 68 | 47 | 0.0 | 3.0 | 0.00 | 0.00 | 0.00 | 30 | 1012.7 |
| 20260507102523 | 68 | 0 | 0.0 | 3.0 | 0.00 | 0.00 | 0.00 | 30 | 1012.8 |
| 20260507102020 | 69 | 51 | 2.0 | 3.0 | 0.00 | 0.00 | 0.00 | 30 | 1012.8 |
| 20260507101538 | 69 | 49 | 0.0 | 3.0 | 0.00 | 0.00 | 0.00 | 29 | 1012.9 |
| 20260507101019 | 69 | 49 | 2.0 | 5.0 | 0.00 | 0.00 | 0.00 | 29 | 1013.0 |
| 20260507100521 | 69 | 46 | 2.0 | 6.0 | 0.00 | 0.00 | 0.00 | 29 | 1013.1 |
| 20260507100051 | 69 | 32 | 2.0 | 6.0 | 0.00 | 0.00 | 0.00 | 29 | 1013.1 |
| 20260507095522 | 69 | 46 | 3.0 | 6.0 | 0.00 | 0.00 | 0.00 | 29 | 1013.1 |
| 20260507095020 | 69 | 40 | 3.0 | 6.0 | 0.00 | 0.00 | 0.00 | 28 | 1013.2 |
| 20260507094539 | 69 | 35 | 3.0 | 6.0 | 0.00 | 0.00 | 0.00 | 28 | 1013.2 |
| 20260507094019 | 70 | 64 | 3.0 | 6.0 | 0.00 | 0.00 | 0.00 | 28 | 1013.2 |
| 20260507093519 | 70 | 45 | 3.0 | 6.0 | 0.00 | 0.00 | 0.00 | 27 | 1013.2 |
| 20260507093038 | 70 | 344 | 1.0 | 5.0 | 0.00 | 0.00 | 0.00 | 27 | 1013.2 |
| 20260507092522 | 70 | 42 | 3.0 | 5.0 | 0.00 | 0.00 | 0.00 | 27 | 1013.2 |
| 20260507092022 | 70 | 59 | 3.0 | 5.0 | 0.00 | 0.00 | 0.00 | 27 | 1013.2 |
| 20260507091542 | 70 | 0 | 2.0 | 7.0 | 0.00 | 0.00 | 0.00 | 27 | 1013.2 |
| 20260507091023 | 70 | 53 | 2.0 | 7.0 | 0.00 | 0.00 | 0.00 | 27 | 1013.2 |
| 20260507090520 | 70 | 70 | 2.0 | 4.0 | 0.00 | 0.00 | 0.00 | 27 | 1013.2 |
| 20260507090040 | 70 | 49 | 2.0 | 4.0 | 0.00 | 0.00 | 0.00 | 27 | 1013.1 |
| 20260507085522 | 70 | 56 | 2.0 | 4.0 | 0.00 | 0.00 | 0.00 | 27 | 1013.1 |
| 20260507085023 | 70 | 0 | 0.0 | 3.0 | 0.00 | 0.00 | 0.00 | 27 | 1013.2 |
| 20260507084550 | 70 | 71 | 2.0 | 3.0 | 0.00 | 0.00 | 0.00 | 27 | 1013.1 |
| 20260507084022 | 70 | 38 | 1.0 | 2.0 | 0.00 | 0.00 | 0.00 | 27 | 1013.1 |
| 20260507083520 | 70 | 0 | 0.0 | 0.0 | 0.00 | 0.00 | 0.00 | 27 | 1013.2 |
| 20260507083038 | 70 | 0 | 0.0 | 2.0 | 0.00 | 0.00 | 0.00 | 27 | 1013.2 |
| 20260507082519 | 70 | 0 | 0.0 | 2.0 | 0.00 | 0.00 | 0.00 | 27 | 1013.2 |
| 20260507082019 | 70 | 10 | 1.0 | 2.0 | 0.00 | 0.00 | 0.00 | 27 | 1013.2 |
| 20260507081536 | 70 | 0 | 0.0 | 0.0 | 0.00 | 0.00 | 0.00 | 27 | 1013.3 |
| 20260507081019 | 70 | 0 | 0.0 | 0.0 | 0.00 | 0.00 | 0.00 | 27 | 1013.4 |
| 20260507080519 | 69 | 0 | 0.0 | 0.0 | 0.00 | 0.00 | 0.00 | 27 | 1013.3 |
| 20260507080041 | 69 | 0 | 0.0 | 0.0 | 0.00 | 0.00 | 0.00 | 27 | 1013.4 |
| 20260507075523 | 70 | 0 | 0.0 | 0.0 | 0.00 | 0.00 | 0.00 | 27 | 1013.4 |
| 20260507075022 | 70 | 0 | 0.0 | 0.0 | 0.00 | 0.00 | 0.00 | 26 | 1013.5 |
| 20260507074542 | 70 | 0 | 0.0 | 0.0 | 0.00 | 0.00 | 0.00 | 26 | 1013.5 |
| 20260507074022 | 70 | 0 | 0.0 | 0.0 | 0.00 | 0.00 | 0.00 | 26 | 1013.5 |
| 20260507073522 | 70 | 0 | 0.0 | 0.0 | 0.00 | 0.00 | 0.00 | 25 | 1013.5 |
| 20260507073039 | 71 | 0 | 0.0 | 2.0 | 0.00 | 0.00 | 0.00 | 25 | 1013.5 |
| 20260507072523 | 72 | 0 | 1.0 | 2.0 | 0.00 | 0.00 | 0.00 | 24 | 1013.5 |
| 20260507072022 | 73 | 0 | 0.0 | 3.0 | 0.00 | 0.00 | 0.00 | 24 | 1013.5 |
| 20260507071543 | 73 | 0 | 0.0 | 3.0 | 0.00 | 0.00 | 0.00 | 24 | 1013.5 |
| 20260507071022 | 74 | 284 | 1.0 | 3.0 | 0.00 | 0.00 | 0.00 | 25 | 1013.5 |
| 20260507070522 | 73 | 300 | 0.0 | 3.0 | 0.00 | 0.00 | 0.00 | 25 | 1013.5 |
| 20260507070044 | 72 | 300 | 1.0 | 3.0 | 0.00 | 0.00 | 0.00 | 25 | 1013.5 |
| 20260507065522 | 72 | 0 | 0.0 | 0.0 | 0.00 | 0.00 | 0.00 | 26 | 1013.5 |
| 20260507065019 | 72 | 0 | 0.0 | 2.0 | 0.00 | 0.00 | 0.00 | 26 | 1013.5 |
| 20260507064544 | 72 | 0 | 0.0 | 2.0 | 0.00 | 0.00 | 0.00 | 26 | 1013.4 |
| 20260507064019 | 72 | 330 | 0.0 | 2.0 | 0.00 | 0.00 | 0.00 | 26 | 1013.3 |
| 20260507063520 | 72 | 331 | 1.0 | 2.0 | 0.00 | 0.00 | 0.00 | 25 | 1013.4 |
| 20260507063038 | 72 | 324 | 0.0 | 0.0 | 0.00 | 0.00 | 0.00 | 25 | 1013.4 |
| 20260507062523 | 72 | 0 | 0.0 | 0.0 | 0.00 | 0.00 | 0.00 | 25 | 1013.3 |
| 20260507062023 | 73 | 0 | 0.0 | 0.0 | 0.00 | 0.00 | 0.00 | 24 | 1013.4 |
| 20260507061540 | 73 | 0 | 0.0 | 0.0 | 0.00 | 0.00 | 0.00 | 24 | 1013.3 |
| 20260507061022 | 73 | 0 | 0.0 | 0.0 | 0.00 | 0.00 | 0.00 | 24 | 1013.3 |
| 20260507060521 | 73 | 0 | 0.0 | 0.0 | 0.00 | 0.00 | 0.00 | 23 | 1013.3 |
| 20260507060043 | 73 | 0 | 0.0 | 0.0 | 0.00 | 0.00 | 0.00 | 23 | 1013.4 |
| 20260507055522 | 74 | 0 | 0.0 | 0.0 | 0.00 | 0.00 | 0.00 | 23 | 1013.4 |
| 20260507055022 | 74 | 0 | 0.0 | 0.0 | 0.00 | 0.00 | 0.00 | 23 | 1013.4 |
| 20260507054541 | 74 | 0 | 0.0 | 0.0 | 0.00 | 0.00 | 0.00 | 23 | 1013.4 |
| 20260507054020 | 74 | 0 | 0.0 | 0.0 | 0.00 | 0.00 | 0.00 | 23 | 1013.4 |
| 20260507053521 | 75 | 0 | 0.0 | 0.0 | 0.00 | 0.00 | 0.00 | 22 | 1013.4 |
| 20260507053039 | 75 | 0 | 0.0 | 0.0 | 0.00 | 0.00 | 0.00 | 23 | 1013.4 |
| 20260507052529 | 75 | 0 | 0.0 | 0.0 | 0.00 | 0.00 | 0.00 | 23 | 1013.4 |
| 20260507052019 | 75 | 0 | 0.0 | 0.0 | 0.00 | 0.00 | 0.00 | 23 | 1013.4 |
| 20260507051537 | 75 | 0 | 0.0 | 0.0 | 0.00 | 0.00 | 0.00 | 23 | 1013.4 |
| 20260507051026 | 75 | 0 | 0.0 | 2.0 | 0.00 | 0.00 | 0.00 | 23 | 1013.3 |
| 20260507050523 | 75 | 0 | 0.0 | 2.0 | 0.00 | 0.00 | 0.00 | 23 | 1013.3 |
| 20260507050059 | 74 | 327 | 0.0 | 2.0 | 0.00 | 0.00 | 0.00 | 23 | 1013.3 |
| 20260507045523 | 75 | 0 | 0.0 | 0.0 | 0.00 | 0.00 | 0.00 | 23 | 1013.2 |
| 20260507045022 | 75 | 0 | 0.0 | 0.0 | 0.00 | 0.00 | 0.00 | 23 | 1013.2 |
| 20260507044549 | 75 | 0 | 0.0 | 0.0 | 0.00 | 0.00 | 0.00 | 23 | 1013.2 |
| 20260507044022 | 75 | 0 | 0.0 | 0.0 | 0.00 | 0.00 | 0.00 | 23 | 1013.2 |
| 20260507043522 | 75 | 0 | 0.0 | 0.0 | 0.00 | 0.00 | 0.00 | 23 | 1013.2 |
| 20260507043037 | 75 | 0 | 0.0 | 0.0 | 0.00 | 0.00 | 0.00 | 23 | 1013.1 |
| 20260507042522 | 75 | 0 | 0.0 | 0.0 | 0.00 | 0.00 | 0.00 | 23 | 1013.0 |
| 20260507042022 | 75 | 0 | 0.0 | 0.0 | 0.00 | 0.00 | 0.00 | 23 | 1013.0 |
| 20260507041539 | 75 | 0 | 0.0 | 0.0 | 0.00 | 0.00 | 0.00 | 23 | 1013.0 |
| 20260507041020 | 76 | 0 | 0.0 | 0.0 | 0.00 | 0.00 | 0.00 | 22 | 1012.8 |
| 20260507040523 | 76 | 0 | 0.0 | 0.0 | 0.00 | 0.00 | 0.00 | 22 | 1012.8 |
| 20260507040038 | 76 | 0 | 0.0 | 0.0 | 0.00 | 0.00 | 0.00 | 22 | 1012.7 |
| 20260507035522 | 76 | 0 | 0.0 | 0.0 | 0.00 | 0.00 | 0.00 | 21 | 1012.7 |
| 20260507035025 | 77 | 0 | 0.0 | 0.0 | 0.00 | 0.00 | 0.00 | 21 | 1012.7 |
| 20260507034541 | 77 | 0 | 0.0 | 0.0 | 0.00 | 0.00 | 0.00 | 21 | 1012.7 |
| 20260507034022 | 77 | 0 | 0.0 | 0.0 | 0.00 | 0.00 | 0.00 | 21 | 1012.6 |
| 20260507033523 | 77 | 0 | 0.0 | 0.0 | 0.00 | 0.00 | 0.00 | 21 | 1012.5 |
| 20260507033041 | 77 | 0 | 0.0 | 0.0 | 0.00 | 0.00 | 0.00 | 21 | 1012.4 |
| 20260507032518 | 77 | 0 | 0.0 | 0.0 | 0.00 | 0.00 | 0.00 | 21 | 1012.4 |
| 20260507032022 | 77 | 0 | 0.0 | 0.0 | 0.00 | 0.00 | 0.00 | 21 | 1012.4 |
| 20260507031539 | 77 | 0 | 0.0 | 0.0 | 0.00 | 0.00 | 0.00 | 20 | 1012.3 |
| 20260507031026 | 77 | 0 | 0.0 | 0.0 | 0.00 | 0.00 | 0.00 | 20 | 1012.2 |
| 20260507030523 | 78 | 0 | 0.0 | 0.0 | 0.00 | 0.00 | 0.00 | 20 | 1012.2 |
| 20260507030039 | 78 | 0 | 0.0 | 0.0 | 0.00 | 0.00 | 0.00 | 20 | 1012.1 |
| 20260507025522 | 78 | 0 | 0.0 | 0.0 | 0.00 | 0.00 | 0.00 | 20 | 1012.1 |
| 20260507025020 | 78 | 0 | 0.0 | 0.0 | 0.00 | 0.00 | 0.00 | 20 | 1012.0 |
| 20260507024544 | 79 | 0 | 0.0 | 0.0 | 0.00 | 0.00 | 0.00 | 19 | 1012.0 |
| 20260507024022 | 79 | 0 | 0.0 | 2.0 | 0.00 | 0.00 | 0.00 | 19 | 1011.9 |
| 20260507023519 | 79 | 0 | 0.0 | 3.0 | 0.00 | 0.00 | 0.00 | 19 | 1011.8 |
| 20260507023038 | 79 | 0 | 0.0 | 3.0 | 0.00 | 0.00 | 0.00 | 19 | 1011.8 |
| 20260507022519 | 79 | 0 | 0.0 | 4.0 | 0.00 | 0.00 | 0.00 | 19 | 1011.7 |
| 20260507022021 | 80 | 298 | 0.0 | 6.0 | 0.00 | 0.00 | 0.00 | 19 | 1011.7 |
| 20260507021550 | 80 | 304 | 3.0 | 6.0 | 0.00 | 0.00 | 0.00 | 18 | 1011.7 |
| 20260507021023 | 80 | 288 | 3.0 | 5.0 | 0.00 | 0.00 | 0.00 | 18 | 1011.6 |
| 20260507020523 | 80 | 298 | 1.0 | 4.0 | 0.00 | 0.00 | 0.00 | 18 | 1011.6 |
| 20260507020040 | 81 | 327 | 2.0 | 4.0 | 0.00 | 0.00 | 0.00 | 18 | 1011.5 |
| 20260507015523 | 81 | 0 | 0.0 | 6.0 | 0.00 | 0.00 | 0.00 | 17 | 1011.5 |
| 20260507015023 | 82 | 0 | 2.0 | 6.0 | 0.00 | 0.00 | 0.00 | 17 | 1011.6 |
| 20260507014538 | 82 | 309 | 0.0 | 6.0 | 0.00 | 0.00 | 0.00 | 17 | 1011.5 |
| 20260507014027 | 83 | 329 | 0.0 | 4.0 | 0.00 | 0.00 | 0.00 | 17 | 1011.5 |
| 20260507013522 | 83 | 0 | 0.0 | 4.0 | 0.00 | 0.00 | 0.00 | 17 | 1011.6 |
| 20260507013038 | 84 | 0 | 0.0 | 4.0 | 0.00 | 0.00 | 0.00 | 17 | 1011.5 |
| 20260507012524 | 85 | 304 | 0.0 | 4.0 | 0.00 | 0.00 | 0.00 | 17 | 1011.5 |
| 20260507012023 | 84 | 0 | 0.0 | 4.0 | 0.00 | 0.00 | 0.00 | 17 | 1011.5 |
| 20260507011539 | 83 | 296 | 0.0 | 4.0 | 0.00 | 0.00 | 0.00 | 17 | 1011.5 |
| 20260507011022 | 83 | 0 | 1.0 | 4.0 | 0.00 | 0.00 | 0.00 | 17 | 1011.5 |
| 20260507010521 | 83 | 53 | 0.0 | 4.0 | 0.00 | 0.00 | 0.00 | 17 | 1011.5 |
| 20260507010043 | 83 | 0 | 2.0 | 7.0 | 0.00 | 0.00 | 0.00 | 17 | 1011.5 |
| 20260507005523 | 83 | 0 | 1.0 | 10.0 | 0.00 | 0.00 | 0.00 | 17 | 1011.5 |
| 20260507005026 | 83 | 284 | 4.0 | 12.0 | 0.00 | 0.00 | 0.00 | 16 | 1011.5 |
| 20260507004536 | 84 | 202 | 5.0 | 12.0 | 0.00 | 0.00 | 0.00 | 17 | 1011.4 |
| 20260507004021 | 84 | 122 | 4.0 | 9.0 | 0.00 | 0.00 | 0.00 | 16 | 1011.4 |
| 20260507003522 | 83 | 173 | 4.0 | 10.0 | 0.00 | 0.00 | 0.00 | 17 | 1011.4 |
| 20260507003040 | 84 | 242 | 3.0 | 10.0 | 0.00 | 0.00 | 0.00 | 17 | 1011.4 |
| 20260507002523 | 84 | 0 | 3.0 | 10.0 | 0.00 | 0.00 | 0.00 | 17 | 1011.3 |
| 20260507002022 | 84 | 214 | 4.0 | 7.0 | 0.00 | 0.00 | 0.00 | 17 | 1011.4 |
| 20260507001539 | 84 | 0 | 2.0 | 8.0 | 0.00 | 0.00 | 0.00 | 17 | 1011.3 |
| 20260507001022 | 84 | 0 | 0.0 | 8.0 | 0.00 | 0.00 | 0.00 | 17 | 1011.4 |
| 20260507000523 | 84 | 182 | 3.0 | 8.0 | 0.00 | 0.00 | 0.00 | 17 | 1011.4 |
| 20260507000039 | 83 | 0 | 0.0 | 5.0 | 0.00 | 0.00 | 0.00 | 17 | 1011.4 |
| 20260506235523 | 83 | 303 | 1.0 | 7.0 | 0.00 | 0.00 | 0.00 | 17 | 1011.4 |
| 20260506235025 | 83 | 240 | 0.0 | 7.0 | 0.00 | 0.00 | 0.00 | 17 | 1011.4 |
| 20260506234548 | 83 | 0 | 2.0 | 7.0 | 0.00 | 0.00 | 0.00 | 18 | 1011.5 |
| 20260506234022 | 83 | 0 | 0.0 | 10.0 | 0.00 | 0.00 | 0.00 | 18 | 1011.5 |
| 20260506233523 | 82 | 0 | 3.0 | 10.0 | 0.00 | 0.00 | 0.00 | 18 | 1011.6 |
| 20260506233038 | 82 | 300 | 3.0 | 9.0 | 0.00 | 0.00 | 0.00 | 18 | 1011.6 |
| 20260506232522 | 82 | 277 | 3.0 | 9.0 | 0.00 | 0.00 | 0.00 | 18 | 1011.7 |
| 20260506232023 | 82 | 28 | 3.0 | 9.0 | 0.00 | 0.00 | 0.00 | 18 | 1011.7 |
| 20260506231543 | 83 | 297 | 4.0 | 9.0 | 0.00 | 0.00 | 0.00 | 18 | 1011.8 |
| 20260506231023 | 83 | 314 | 2.0 | 7.0 | 0.00 | 0.00 | 0.00 | 18 | 1011.8 |
| 20260506230523 | 84 | 310 | 1.0 | 7.0 | 0.00 | 0.00 | 0.00 | 18 | 1011.8 |
| 20260506230041 | 84 | 285 | 1.0 | 4.0 | 0.00 | 0.00 | 0.00 | 18 | 1011.9 |
| 20260506225523 | 83 | 0 | 2.0 | 6.0 | 0.00 | 0.00 | 0.00 | 18 | 1012.0 |
| 20260506225023 | 83 | 219 | 3.0 | 6.0 | 0.00 | 0.00 | 0.00 | 18 | 1012.0 |
| 20260506224544 | 82 | 144 | 2.0 | 6.0 | 0.00 | 0.00 | 0.00 | 18 | 1012.0 |
| 20260506224022 | 82 | 326 | 0.0 | 6.0 | 0.00 | 0.00 | 0.00 | 18 | 1012.2 |
| 20260506223522 | 82 | 59 | 4.0 | 10.0 | 0.00 | 0.00 | 0.00 | 19 | 1012.2 |
| 20260506223040 | 82 | 100 | 4.0 | 10.0 | 0.00 | 0.00 | 0.00 | 19 | 1012.3 |
| 20260506222523 | 82 | 227 | 1.0 | 5.0 | 0.00 | 0.00 | 0.00 | 19 | 1012.2 |
| 20260506222023 | 82 | 0 | 1.0 | 5.0 | 0.00 | 0.00 | 0.00 | 19 | 1012.4 |
| 20260506221539 | 82 | 348 | 2.0 | 7.0 | 0.00 | 0.00 | 0.00 | 19 | 1012.4 |
| 20260506221021 | 82 | 221 | 2.0 | 8.0 | 0.00 | 0.00 | 0.00 | 19 | 1012.4 |
| 20260506220521 | 81 | 213 | 3.0 | 9.0 | 0.00 | 0.00 | 0.00 | 19 | 1012.5 |
| 20260506220038 | 81 | 218 | 5.0 | 9.0 | 0.00 | 0.00 | 0.00 | 19 | 1012.6 |
| 20260506215521 | 81 | 22 | 3.0 | 10.0 | 0.00 | 0.00 | 0.00 | 19 | 1012.7 |
| 20260506215022 | 81 | 42 | 4.0 | 10.0 | 0.00 | 0.00 | 0.00 | 19 | 1012.7 |
| 20260506214540 | 81 | 335 | 5.0 | 10.0 | 0.00 | 0.00 | 0.00 | 20 | 1012.8 |
| 20260506214022 | 81 | 236 | 2.0 | 6.0 | 0.00 | 0.00 | 0.00 | 20 | 1012.8 |
| 20260506213522 | 80 | 280 | 1.0 | 10.0 | 0.00 | 0.00 | 0.00 | 20 | 1013.0 |
| 20260506213041 | 80 | 150 | 3.0 | 10.0 | 0.00 | 0.00 | 0.00 | 20 | 1013.1 |
| 20260506212527 | 80 | 295 | 5.0 | 10.0 | 0.00 | 0.00 | 0.00 | 20 | 1013.2 |
| 20260506212025 | 81 | 121 | 5.0 | 10.0 | 0.00 | 0.00 | 0.00 | 20 | 1013.2 |
| 20260506211539 | 81 | 31 | 3.0 | 13.0 | 0.00 | 0.00 | 0.00 | 20 | 1013.3 |
| 20260506211021 | 81 | 80 | 4.0 | 13.0 | 0.00 | 0.00 | 0.00 | 20 | 1013.3 |
| 20260506210523 | 81 | 281 | 6.0 | 13.0 | 0.00 | 0.00 | 0.00 | 20 | 1013.4 |
| 20260506210039 | 81 | 45 | 7.0 | 12.0 | 0.00 | 0.00 | 0.00 | 20 | 1013.4 |
| 20260506205522 | 81 | 38 | 4.0 | 9.0 | 0.00 | 0.00 | 0.00 | 21 | 1013.5 |
| 20260506205024 | 81 | 286 | 2.0 | 8.0 | 0.00 | 0.00 | 0.00 | 21 | 1013.5 |
| 20260506204549 | 81 | 0 | 0.0 | 8.0 | 0.00 | 0.00 | 0.00 | 21 | 1013.5 |
| 20260506204022 | 80 | 204 | 3.0 | 8.0 | 0.00 | 0.00 | 0.00 | 21 | 1013.6 |
| 20260506203523 | 80 | 292 | 4.0 | 6.0 | 0.00 | 0.00 | 0.00 | 22 | 1013.6 |
| 20260506203038 | 79 | 0 | 3.0 | 6.0 | 0.00 | 0.00 | 0.00 | 22 | 1013.7 |
| 20260506202523 | 80 | 128 | 0.0 | 9.0 | 0.00 | 0.00 | 0.00 | 22 | 1013.6 |
| 20260506202022 | 80 | 84 | 0.0 | 12.0 | 0.00 | 0.00 | 0.00 | 22 | 1013.8 |
| 20260506201539 | 80 | 350 | 4.0 | 12.0 | 0.00 | 0.00 | 0.00 | 22 | 1013.9 |
| 20260506201023 | 79 | 340 | 3.0 | 10.0 | 0.00 | 0.00 | 0.00 | 23 | 1013.8 |
| 20260506200522 | 79 | 0 | 2.0 | 8.0 | 0.00 | 0.00 | 0.00 | 23 | 1013.9 |
| 20260506200036 | 79 | 0 | 0.0 | 8.0 | 0.00 | 0.00 | 0.00 | 23 | 1013.9 |
| 20260506195523 | 80 | 317 | 2.0 | 8.0 | 0.00 | 0.00 | 0.00 | 23 | 1014.0 |
| 20260506195024 | 79 | 201 | 1.0 | 9.0 | 0.00 | 0.00 | 0.00 | 23 | 1013.9 |
| 20260506194548 | 79 | 165 | 4.0 | 10.0 | 0.00 | 0.00 | 0.00 | 24 | 1014.0 |
| 20260506194020 | 79 | 235 | 6.0 | 11.0 | 0.00 | 0.00 | 0.00 | 24 | 1014.0 |
| 20260506193521 | 79 | 265 | 4.0 | 11.0 | 0.00 | 0.00 | 0.00 | 24 | 1014.0 |
| 20260506193038 | 78 | 209 | 1.0 | 6.0 | 0.00 | 0.00 | 0.00 | 25 | 1014.1 |
| 20260506192523 | 78 | 311 | 1.0 | 9.0 | 0.00 | 0.00 | 0.00 | 25 | 1014.1 |
| 20260506192020 | 78 | 261 | 3.0 | 9.0 | 0.00 | 0.00 | 0.00 | 25 | 1014.2 |
| 20260506191539 | 78 | 244 | 3.0 | 9.0 | 0.00 | 0.00 | 0.00 | 25 | 1014.3 |
| 20260506191020 | 78 | 231 | 0.0 | 5.0 | 0.00 | 0.00 | 0.00 | 25 | 1014.3 |
| 20260506190520 | 78 | 217 | 2.0 | 7.0 | 0.00 | 0.00 | 0.00 | 25 | 1014.4 |
| 20260506190039 | 77 | 175 | 2.0 | 7.0 | 0.00 | 0.00 | 0.00 | 26 | 1014.4 |
| 20260506185523 | 77 | 280 | 1.0 | 6.0 | 0.00 | 0.00 | 0.00 | 26 | 1014.5 |
| 20260506185023 | 77 | 74 | 1.0 | 6.0 | 0.00 | 0.00 | 0.00 | 26 | 1014.7 |
| 20260506184539 | 76 | 38 | 3.0 | 6.0 | 0.00 | 0.00 | 0.00 | 26 | 1014.9 |
| 20260506184023 | 76 | 99 | 4.0 | 6.0 | 0.00 | 0.00 | 0.00 | 26 | 1015.0 |
| 20260506183521 | 77 | 128 | 2.0 | 7.0 | 0.00 | 0.00 | 0.00 | 27 | 1015.0 |
| 20260506183050 | 76 | 128 | 0.0 | 7.0 | 0.00 | 0.00 | 0.00 | 27 | 1015.1 |
| 20260506182520 | 75 | 11 | 3.0 | 12.0 | 0.00 | 0.00 | 0.00 | 27 | 1015.2 |
| 20260506182020 | 76 | 138 | 5.0 | 12.0 | 0.00 | 0.00 | 0.00 | 27 | 1015.2 |
| 20260506181537 | 76 | 71 | 2.0 | 9.0 | 0.00 | 0.00 | 0.00 | 27 | 1015.3 |
| 20260506181024 | 76 | 40 | 3.0 | 9.0 | 0.00 | 0.00 | 0.00 | 27 | 1015.3 |
| 20260506180524 | 76 | 0 | 1.0 | 4.0 | 0.00 | 0.00 | 0.00 | 27 | 1015.3 |
| 20260506180038 | 76 | 257 | 0.0 | 5.0 | 0.00 | 0.00 | 0.00 | 28 | 1015.3 |
| 20260506175519 | 76 | 111 | 2.0 | 9.0 | 0.00 | 0.00 | 0.00 | 28 | 1015.3 |
| 20260506175023 | 76 | 250 | 2.0 | 9.0 | 0.00 | 0.00 | 0.00 | 28 | 1015.3 |
| 20260506174538 | 76 | 212 | 0.0 | 5.0 | 0.00 | 0.00 | 0.00 | 28 | 1015.4 |
| 20260506174022 | 76 | 230 | 3.0 | 5.0 | 0.00 | 0.00 | 0.00 | 28 | 1015.4 |
| 20260506173523 | 75 | 184 | 0.0 | 4.0 | 0.00 | 0.00 | 0.00 | 29 | 1015.4 |
| 20260506173037 | 76 | 113 | 2.0 | 4.0 | 0.00 | 0.00 | 0.00 | 29 | 1015.4 |
| 20260506172521 | 76 | 130 | 0.0 | 4.0 | 0.00 | 0.00 | 0.00 | 30 | 1015.4 |
| 20260506172023 | 75 | 258 | 0.0 | 3.0 | 0.00 | 0.00 | 0.00 | 30 | 1015.4 |
| 20260506171543 | 76 | 229 | 0.0 | 3.0 | 0.00 | 0.00 | 0.00 | 30 | 1015.4 |
| 20260506171023 | 74 | 0 | 0.0 | 5.0 | 0.00 | 0.00 | 0.00 | 31 | 1015.3 |
| 20260506170522 | 73 | 0 | 0.0 | 5.0 | 0.00 | 0.00 | 0.00 | 31 | 1015.3 |
| 20260506170045 | 73 | 227 | 3.0 | 5.0 | 0.00 | 0.00 | 0.00 | 31 | 1015.3 |
| 20260506165525 | 73 | 223 | 2.0 | 4.0 | 0.00 | 0.00 | 0.00 | 32 | 1015.3 |
| 20260506165021 | 73 | 227 | 1.0 | 4.0 | 0.00 | 0.00 | 0.00 | 32 | 1015.3 |
| 20260506164546 | 72 | 0 | 0.0 | 3.0 | 0.00 | 0.00 | 0.00 | 32 | 1015.3 |
| 20260506164022 | 71 | 63 | 1.0 | 4.0 | 0.00 | 0.00 | 0.00 | 32 | 1015.3 |
| 20260506163525 | 72 | 60 | 0.0 | 4.0 | 0.00 | 0.00 | 0.00 | 32 | 1015.3 |
| 20260506163040 | 72 | 342 | 0.0 | 3.0 | 0.00 | 0.00 | 0.00 | 32 | 1015.3 |
| 20260506162525 | 72 | 0 | 0.0 | 3.0 | 0.00 | 0.00 | 0.00 | 33 | 1015.3 |
| 20260506162020 | 72 | 0 | 0.0 | 3.0 | 0.00 | 0.00 | 0.00 | 33 | 1015.3 |
| 20260506161545 | 72 | 0 | 0.0 | 6.0 | 0.00 | 0.00 | 0.00 | 33 | 1015.3 |
| 20260506161018 | 72 | 136 | 2.0 | 6.0 | 0.00 | 0.00 | 0.00 | 33 | 1015.3 |
| 20260506160521 | 72 | 205 | 1.0 | 5.0 | 0.00 | 0.00 | 0.00 | 34 | 1015.3 |
| 20260506160044 | 71 | 0 | 0.0 | 2.0 | 0.00 | 0.00 | 0.00 | 34 | 1015.3 |
| 20260506155518 | 70 | 0 | 0.0 | 2.0 | 0.00 | 0.00 | 0.00 | 34 | 1015.3 |
| 20260506155018 | 70 | 0 | 0.0 | 4.0 | 0.00 | 0.00 | 0.00 | 35 | 1015.3 |
| 20260506154537 | 70 | 61 | 1.0 | 4.0 | 0.00 | 0.00 | 0.00 | 35 | 1015.4 |
| 20260506154018 | 71 | 0 | 0.0 | 3.0 | 0.00 | 0.00 | 0.00 | 35 | 1015.3 |
| 20260506153517 | 70 | 116 | 0.0 | 3.0 | 0.00 | 0.00 | 0.00 | 36 | 1015.3 |
| 20260506153032 | 69 | 0 | 0.0 | 3.0 | 0.00 | 0.00 | 0.00 | 36 | 1015.4 |
| 20260506152518 | 69 | 0 | 0.0 | 4.0 | 0.00 | 0.00 | 0.00 | 36 | 1015.3 |
| 20260506152018 | 68 | 0 | 0.0 | 4.0 | 0.00 | 0.00 | 0.00 | 37 | 1015.3 |